GFSSW_500_spd_159.txt.gz
Wind_Speed
7 7 8 9 10 8 8 10 10 11 11 9 8 7 6 5 6 3 5 3 4 4 4 6 5 6 8 8 8 12 11 7 2 7 12 24 19 12 11 4 6 10 9 12 14
10 10 10 9 9 8 7 7 8 9 11 11 11 11 10 9 8 6 7 7 5 6 5 4 6 5 6 5 6 8 8 7 6 4 6 20 15 17 7 6 7 10 11 12 13
8 10 10 10 9 8 6 5 6 8 11 13 14 15 14 12 11 6 7 10 9 8 7 4 4 4 4 4 5 6 4 4 6 10 9 28 14 13 10 7 8 8 10 13 13
7 8 9 10 11 9 7 6 6 8 11 13 16 16 15 14 11 8 8 11 11 10 6 3 3 1 2 5 3 6 4 3 6 2 5 12 7 5 7 8 10 10 7 12 15
5 6 7 9 10 10 8 7 7 9 12 14 16 16 16 15 14 11 9 11 12 12 9 4 0 1 5 4 1 3 4 5 6 10 10 11 6 8 7 10 10 11 10 11 13
5 5 6 7 8 9 9 8 8 9 12 15 17 19 18 16 15 12 10 10 11 11 9 7 4 5 6 4 3 8 3 4 9 9 11 10 8 13 10 13 11 12 10 11 12
6 6 6 7 7 8 7 6 8 10 13 16 19 20 18 16 14 13 10 9 10 10 8 8 7 6 6 5 4 9 5 5 7 9 8 8 6 9 8 14 10 14 11 8 9
7 7 7 7 7 7 7 8 9 11 14 17 22 22 19 16 14 11 11 10 10 11 10 9 8 7 7 5 5 7 4 8 7 8 9 10 7 6 7 7 13 10 10 8 8
9 9 8 8 7 8 9 10 11 13 14 18 23 23 19 17 14 10 9 10 10 10 10 9 8 6 6 5 5 9 11 13 8 5 6 5 6 5 6 10 14 6 9 9 7
12 11 10 10 9 10 11 12 12 13 14 19 24 23 20 17 12 9 7 9 10 9 10 9 7 3 7 8 6 8 11 12 5 4 2 3 5 6 6 10 14 11 10 10 8
14 13 13 12 10 12 12 13 13 15 15 18 23 25 22 18 12 9 7 8 9 10 9 8 7 9 13 11 8 9 11 12 8 11 7 4 2 2 7 12 12 10 8 9 8
14 14 14 14 13 14 14 14 15 16 17 17 20 25 22 18 12 9 8 9 10 10 11 10 12 15 10 5 7 7 10 10 9 8 9 6 4 3 4 15 15 15 11 9 8
14 15 15 15 15 16 15 15 17 18 17 16 18 22 20 17 13 10 9 8 10 12 11 13 14 9 8 6 8 8 6 7 10 11 9 9 8 6 4 11 14 18 12 12 12
17 16 16 16 16 18 18 17 18 19 19 17 17 17 20 18 12 9 7 7 9 9 10 11 6 5 5 5 9 7 5 8 8 10 9 8 5 7 5 5 13 18 23 18 17
22 21 20 19 18 20 20 20 19 19 19 19 15 15 18 17 11 6 6 8 9 11 9 6 6 7 7 8 6 3 3 10 12 12 13 12 10 9 7 5 5 15 18 15 17
26 26 24 23 23 23 22 22 21 20 22 19 14 14 15 15 9 6 6 8 9 9 6 5 6 6 8 6 7 5 6 8 9 9 10 13 15 16 11 8 5 5 13 16 15
33 32 33 29 26 26 26 24 22 21 21 18 15 13 13 14 11 5 6 10 12 12 9 8 8 8 8 9 11 13 12 9 7 6 7 9 11 15 17 17 12 11 12 13 20
39 37 36 34 31 30 30 26 23 22 22 19 16 15 12 10 9 6 8 13 15 14 12 11 12 12 11 7 10 11 13 13 10 7 7 5 7 10 11 10 11 12 14 16 17
31 32 33 36 35 35 35 30 21 24 23 22 19 16 13 11 8 7 7 9 11 12 14 14 10 12 12 10 9 8 11 12 9 8 8 5 6 10 11 10 6 9 13 15 10
30 32 29 29 27 31 36 31 26 27 25 25 22 18 15 13 8 7 7 6 8 11 15 14 14 13 11 9 10 10 8 9 9 8 8 6 6 9 10 10 8 7 9 16 16
31 32 29 30 30 30 29 28 28 31 28 27 26 22 19 15 12 11 9 9 8 11 18 18 14 15 15 14 11 8 4 4 8 9 7 7 7 5 9 10 10 11 9 11 16
35 32 33 32 33 33 29 27 30 34 33 30 29 27 25 20 15 13 11 12 10 12 16 18 13 17 15 18 16 15 13 11 9 6 4 4 7 6 7 7 10 10 11 13 13
35 34 35 35 34 33 33 31 32 37 37 34 30 30 28 24 19 14 12 13 13 16 16 14 14 12 10 12 11 14 14 12 10 10 8 8 9 7 4 8 9 9 11 9 8
35 36 35 37 36 35 32 32 33 37 40 36 32 33 31 29 24 21 15 16 15 15 16 14 13 12 13 14 16 19 16 14 12 11 12 8 10 10 10 10 13 10 13 14 12
41 41 39 40 41 41 39 36 35 36 40 39 36 34 36 34 29 25 23 18 18 19 19 17 15 15 16 18 20 22 21 20 18 17 15 16 12 12 12 10 10 13 14 18 17
39 41 42 43 43 44 47 41 38 38 40 42 39 40 41 35 32 30 26 21 22 24 23 21 20 20 20 21 22 21 18 20 21 21 20 19 17 16 15 15 12 9 13 18 20
35 38 42 43 44 45 44 42 39 38 41 43 42 44 42 38 39 35 32 27 25 28 29 29 27 25 23 22 22 17 18 19 20 21 22 23 21 20 17 18 18 15 13 15 20

GFSSW_500_spd_162.txt.gz
Wind_Speed
11 11 11 11 11 11 11 12 13 13 12 12 12 10 7 5 3 4 3 5 3 2 4 6 6 5 6 6 7 8 7 4 3 7 14 23 18 11 7 8 3 7 6 7 11
11 11 11 10 9 9 8 9 10 12 13 14 14 13 11 9 5 4 6 7 7 3 4 4 4 4 5 5 4 6 5 4 7 5 14 20 20 14 7 6 4 7 7 10 10
10 10 11 11 9 9 7 7 8 10 11 12 14 14 13 11 7 4 6 8 9 5 3 3 2 2 2 1 3 5 4 5 2 3 5 13 20 14 9 6 6 6 8 11 11
7 8 10 10 11 9 7 7 7 9 11 13 13 13 13 11 8 7 6 8 9 6 2 3 1 1 0 2 0 4 4 6 5 3 13 17 23 12 11 9 8 8 8 11 11
5 5 6 8 9 8 7 7 7 9 11 12 14 16 16 12 10 8 7 8 8 6 5 5 2 2 3 2 4 1 5 7 7 9 15 13 15 13 13 10 9 10 9 10 11
4 4 4 5 5 6 6 6 7 8 10 12 15 18 17 14 13 10 8 8 7 6 6 6 4 4 5 5 3 3 4 5 8 10 11 9 11 14 14 11 10 11 10 11 11
5 4 4 4 4 5 5 5 6 8 10 12 16 19 18 14 12 11 9 7 6 6 7 8 7 6 5 6 4 4 5 3 4 7 8 5 6 10 15 11 12 12 9 10 10
5 5 4 4 4 4 4 5 6 8 9 12 16 19 19 16 13 10 9 8 6 6 9 10 9 8 8 7 7 6 5 4 4 7 8 7 2 6 18 18 15 13 10 9 10
7 7 6 6 6 6 6 6 6 8 9 13 15 20 20 17 13 9 7 6 6 7 9 10 9 9 8 8 7 7 6 8 5 5 5 5 4 2 11 14 17 14 13 11 10
9 9 8 9 9 9 8 8 7 8 10 13 15 19 22 18 12 8 6 5 6 8 9 10 8 9 10 12 9 12 13 10 6 4 3 3 6 6 7 13 15 12 13 12 12
10 10 10 10 12 10 10 9 9 9 11 14 16 18 20 18 12 7 5 4 7 9 9 9 10 10 8 10 12 14 16 12 11 8 7 5 5 9 8 10 11 13 13 13 11
11 11 11 11 13 12 12 10 10 11 13 15 15 16 19 19 12 8 6 5 7 9 10 11 13 16 8 7 10 12 12 14 13 11 10 10 7 4 5 13 15 18 13 11 10
13 12 12 12 13 14 14 14 14 14 15 15 15 15 17 19 13 8 7 6 9 11 11 13 17 12 8 10 10 7 8 10 12 12 10 9 7 6 6 8 17 18 19 9 13
18 17 16 15 15 16 16 16 17 17 17 15 16 14 13 19 14 9 7 7 9 10 10 10 9 7 7 10 13 7 11 8 8 6 7 9 2 8 7 7 15 19 20 18 17
23 23 21 20 18 19 19 19 19 19 19 19 15 13 10 15 15 8 7 7 8 9 7 9 9 10 10 13 15 12 12 12 10 9 9 12 2 14 8 8 9 9 21 17 20
29 29 28 26 24 23 22 21 20 21 22 20 16 13 11 10 12 8 5 5 7 8 9 10 10 10 11 9 8 6 7 8 11 7 2 19 12 15 11 10 8 8 5 15 18
35 35 34 33 31 29 28 24 24 23 23 23 18 13 11 10 10 6 5 5 8 9 10 10 8 7 6 5 4 5 4 3 3 6 6 17 6 16 12 13 13 11 8 13 17
26 27 32 36 35 35 33 30 28 22 24 23 20 16 13 11 9 6 5 7 9 11 13 9 7 8 4 4 5 5 10 9 9 9 8 11 4 13 12 9 9 8 9 11 9
29 28 27 26 28 30 33 34 27 25 24 23 23 18 16 13 10 6 4 6 9 10 11 12 13 10 6 6 6 11 5 13 9 11 6 10 10 11 13 11 4 4 7 8 10
33 32 29 28 28 30 28 24 26 28 27 25 25 22 18 16 12 8 5 5 7 10 15 12 13 11 8 9 9 6 9 5 5 7 3 9 8 7 10 11 9 4 5 6 10
32 32 30 29 29 30 27 26 21 26 29 28 28 26 23 20 16 11 8 8 8 9 13 13 11 11 12 12 10 7 3 5 12 12 7 4 7 10 11 11 10 10 9 8 8
32 32 31 29 31 29 28 27 26 27 31 31 31 29 27 25 20 17 10 11 9 10 14 16 9 10 11 14 15 15 12 10 4 11 8 14 9 9 8 12 12 13 13 13 13
33 33 32 31 31 31 31 29 30 31 33 34 33 32 30 30 25 19 15 15 11 12 14 15 12 12 12 14 15 16 16 13 14 12 12 8 11 16 9 10 13 12 11 14 15
35 37 34 36 34 34 31 32 31 30 34 37 34 34 34 33 30 25 21 17 14 15 15 16 13 14 9 13 16 16 15 14 14 12 10 13 14 15 12 10 10 13 14 13 18
35 37 39 41 39 38 34 32 33 31 35 36 37 36 36 37 34 29 27 21 17 18 15 18 17 21 22 23 20 19 16 13 14 14 16 16 15 13 14 11 11 12 14 17 17
34 34 37 40 41 39 39 37 37 41 40 40 39 40 41 39 36 34 30 26 21 18 18 15 20 20 23 22 22 24 21 18 16 16 14 14 15 18 16 15 14 12 15 18 19
35 34 35 36 39 40 43 40 41 41 44 47 44 44 44 43 43 37 34 33 32 25 21 20 23 20 18 25 22 22 22 20 18 15 14 13 19 16 17 17 17 15 15 17 20

GFSSW_500_spd_165.txt.gz
Wind_Speed
11 10 10 11 11 12 13 15 14 14 14 13 11 9 6 2 2 4 5 3 3 4 4 4 3 4 5 4 6 6 7 1 3 6 15 17 18 7 4 4 4 3 3 4 8
11 11 10 10 9 8 10 12 13 12 12 13 12 11 9 6 3 2 5 5 3 3 3 2 2 2 3 4 3 3 4 3 4 11 17 20 20 9 5 4 3 2 3 5 8
9 10 11 10 9 8 8 8 9 10 10 12 12 11 9 8 5 5 6 6 4 4 4 2 2 1 2 2 1 4 3 5 6 6 10 22 25 10 8 6 4 2 3 5 6
7 8 9 9 9 8 7 7 7 8 10 10 12 12 11 10 6 6 7 5 4 4 6 4 2 1 0 2 2 7 4 6 5 9 7 15 22 16 10 7 7 5 5 5 5
4 4 5 6 7 7 6 6 6 7 9 9 11 13 13 12 10 8 8 6 4 5 8 5 3 1 3 4 5 3 4 7 6 7 12 20 19 15 14 11 11 8 7 6 5
2 2 2 2 4 4 4 3 4 5 8 9 11 15 15 13 12 9 9 6 4 5 9 7 6 5 6 5 3 4 2 4 3 5 6 21 17 15 11 12 12 10 9 7 6
2 1 1 0 1 1 1 1 2 4 6 8 11 15 15 13 12 10 9 7 5 6 10 9 9 8 6 6 3 3 2 1 1 3 4 6 16 19 16 11 12 12 11 9 6
2 3 3 2 1 1 1 2 3 4 6 8 10 15 15 16 13 10 8 6 6 8 11 11 11 9 11 7 3 3 5 4 4 3 4 4 6 16 17 14 13 13 11 9 6
6 5 5 5 4 4 3 3 4 5 6 8 10 14 16 17 14 10 7 5 7 9 10 12 12 9 5 3 3 4 5 8 5 6 4 3 6 4 16 15 15 14 13 10 7
8 8 8 8 7 6 6 5 4 5 6 8 10 15 16 18 15 10 7 6 8 10 10 11 11 8 6 10 23 14 7 9 2 7 1 7 10 3 7 19 19 14 12 10 9
8 9 9 11 10 9 8 7 6 5 6 9 11 13 16 18 16 9 7 6 8 10 10 12 11 7 6 19 13 3 7 10 14 9 2 7 10 9 8 9 15 9 11 10 9
7 7 8 10 11 11 10 9 9 8 10 10 13 13 14 16 17 9 7 6 8 10 11 12 12 13 15 28 21 8 7 12 16 15 6 12 12 11 8 7 11 15 12 13 11
12 12 11 12 12 11 12 12 13 13 13 11 12 13 12 14 16 11 7 5 7 10 12 14 4 15 17 15 11 3 6 12 10 8 13 6 7 13 11 9 11 15 17 16 18
17 16 16 17 17 16 16 15 15 16 17 14 13 13 12 11 14 12 7 6 6 9 11 14 17 11 12 13 9 9 15 16 9 9 15 11 17 12 11 12 9 14 23 18 20
25 24 23 22 22 21 20 19 18 17 14 21 15 14 12 10 12 10 7 6 5 6 8 8 11 12 12 11 10 12 21 14 9 7 13 8 7 20 20 13 11 10 18 20 20
32 31 30 29 28 27 25 23 21 19 17 22 18 15 12 11 11 10 6 5 5 7 11 13 14 14 10 14 16 13 8 2 3 2 6 16 5 18 6 9 16 8 9 13 23
33 33 33 32 32 32 31 29 27 23 24 26 19 15 13 12 12 9 6 5 5 7 9 8 9 11 13 8 8 8 4 8 6 11 11 4 2 20 23 15 20 13 10 9 14
22 21 22 21 22 27 32 33 34 28 25 23 20 17 13 14 13 10 5 5 6 13 8 7 9 8 9 13 4 7 12 14 5 12 4 13 3 17 22 22 16 15 8 8 6
27 25 25 28 26 26 26 25 23 27 25 25 22 19 16 15 12 12 7 7 9 12 14 10 9 16 11 13 15 10 8 9 8 10 11 10 4 17 14 13 12 8 8 8 8
34 32 29 30 30 30 29 23 23 25 32 29 24 21 18 17 17 14 10 9 14 13 22 12 13 13 13 14 12 16 12 6 5 7 4 7 13 18 10 9 11 9 9 7 6
31 33 30 30 31 31 27 23 26 27 24 30 28 20 19 18 19 15 13 9 11 18 18 14 15 12 16 11 9 5 9 10 9 15 7 5 9 18 25 17 13 14 12 11 9
34 36 31 33 32 32 29 27 29 25 27 30 31 31 27 23 21 19 16 14 12 15 14 18 9 11 10 10 15 17 11 10 2 8 8 13 11 20 19 16 13 14 14 13 14
35 36 34 35 35 34 29 29 29 28 31 31 32 33 31 29 30 24 21 19 24 16 17 16 18 14 8 13 16 15 15 15 12 9 13 6 24 23 21 22 14 13 13 13 16
36 38 39 39 39 37 35 32 31 30 33 33 34 36 36 35 34 27 23 25 22 17 20 22 19 14 19 17 6 7 11 15 15 13 11 10 20 26 24 17 14 15 14 15 15
34 36 36 38 41 41 40 35 33 32 33 35 37 36 38 38 35 34 26 25 25 24 19 21 18 21 16 14 18 14 14 14 15 16 19 13 16 12 29 16 13 16 16 17 16
36 37 42 42 43 41 42 39 38 35 37 37 38 35 36 38 38 30 28 27 27 26 23 19 20 21 26 23 28 29 23 19 15 15 19 26 20 29 28 21 20 18 18 19 20
37 39 40 42 43 44 42 44 42 41 46 37 41 42 45 44 48 51 47 36 26 27 26 24 21 22 23 19 23 25 20 22 20 18 16 17 19 28 17 19 21 20 21 22 21

GFSSW_500_spd_168.txt.gz
Wind_Speed
10 10 11 11 13 13 13 14 15 14 13 12 10 7 4 1 1 3 2 2 1 1 1 2 3 4 6 7 7 4 7 5 10 14 21 18 14 9 4 3 5 2 2 3 3
11 11 10 9 9 10 12 12 12 11 11 10 10 9 7 7 4 3 3 3 2 2 1 2 1 3 3 8 10 19 17 9 10 5 8 8 14 12 8 7 4 3 3 2 4
9 10 10 10 8 8 8 9 9 9 9 9 10 10 10 9 5 7 5 4 3 4 3 2 2 1 2 5 9 8 9 8 13 10 8 11 18 16 8 8 1 2 4 2 3
6 7 8 9 9 7 7 7 7 7 8 8 9 10 10 11 8 8 6 5 4 6 5 4 2 3 4 7 10 9 4 6 8 13 13 14 19 16 8 5 4 3 4 2 1
3 4 5 6 7 6 6 6 5 5 7 7 9 11 13 12 12 10 8 6 6 6 6 6 5 2 8 10 8 6 6 10 10 4 7 12 21 7 10 12 9 6 5 3 2
2 2 2 2 3 4 4 3 3 3 5 6 9 12 14 13 13 11 9 6 7 8 8 7 7 5 1 9 4 5 3 7 10 5 2 11 18 18 15 12 8 8 7 5 3
0 0 1 2 2 1 1 1 0 2 4 6 9 12 14 14 13 11 8 7 8 9 9 9 8 8 15 12 9 7 7 5 8 8 9 9 15 18 22 10 11 10 8 6 4
3 3 2 2 3 3 3 3 4 4 4 6 8 11 13 15 14 11 8 7 9 10 10 9 8 11 12 6 8 4 3 8 7 7 6 8 10 13 11 12 14 11 10 7 3
7 7 6 5 5 5 5 6 6 5 5 6 7 10 11 14 15 13 8 8 9 11 10 9 8 10 7 6 14 9 9 9 5 7 7 6 11 11 17 13 14 10 9 7 4
9 9 9 8 7 7 7 7 7 6 5 5 7 10 12 14 15 13 9 9 10 11 10 9 9 9 3 9 21 8 5 4 11 4 4 2 14 7 1 8 12 11 10 8 6
10 10 11 10 9 10 9 9 9 7 7 6 7 10 13 14 15 14 9 8 9 10 9 10 8 10 17 28 17 12 3 7 11 14 2 10 8 4 6 10 13 20 10 9 9
9 8 9 9 9 10 11 11 11 11 10 9 9 11 12 13 14 13 9 8 9 10 11 10 7 16 19 7 6 10 15 10 12 16 13 18 8 7 5 7 7 11 14 19 13
13 13 13 13 12 12 12 12 13 14 13 12 11 12 12 13 13 13 9 8 8 10 11 10 2 11 10 13 16 5 11 19 14 13 13 10 14 6 7 8 4 7 12 17 11
19 18 18 18 18 17 17 17 16 17 17 19 14 13 12 12 11 11 10 8 7 9 11 12 18 15 18 14 11 4 19 15 21 15 7 16 15 21 15 9 9 5 12 12 10
27 26 25 24 24 23 22 21 20 19 19 25 17 14 13 13 12 11 12 8 7 8 11 10 12 18 13 13 16 10 19 19 19 13 11 10 18 15 15 16 7 5 9 18 14
33 34 33 32 31 30 28 26 25 22 19 21 21 15 16 13 12 12 11 8 7 9 10 14 15 13 12 8 11 13 7 4 5 2 7 5 10 17 24 32 13 3 3 10 19
26 29 30 31 31 32 31 31 30 28 13 14 26 18 16 15 14 10 10 8 5 6 5 8 10 8 11 10 9 12 5 9 3 7 12 12 5 18 26 25 10 14 9 8 9
26 25 24 22 21 23 23 25 26 23 23 8 16 23 16 14 14 11 9 7 7 15 3 3 9 6 3 11 8 1 8 25 19 8 4 13 11 19 22 28 27 24 15 11 3
27 26 27 25 25 25 26 25 19 15 18 11 22 20 16 12 13 14 10 7 9 14 15 14 9 21 6 13 12 13 7 12 8 14 6 6 9 27 21 24 20 14 16 11 10
31 29 27 29 30 31 32 24 21 20 26 27 20 21 19 16 18 16 15 10 10 13 19 12 16 17 9 12 16 14 14 7 7 6 10 13 15 19 21 13 23 16 11 14 8
32 32 28 30 30 31 28 24 24 25 30 30 35 24 21 22 21 21 16 16 12 16 21 17 11 14 13 12 11 10 10 15 11 11 11 17 13 12 17 13 21 16 16 11 8
31 32 29 33 34 32 29 27 27 30 33 31 28 33 32 24 24 24 19 16 17 18 20 22 14 14 9 14 13 14 7 8 7 9 12 16 7 21 18 21 20 18 13 17 13
29 30 36 32 33 34 32 29 28 29 30 32 29 29 34 35 33 28 23 17 20 18 19 18 25 18 17 12 13 15 19 15 13 13 13 11 23 26 20 23 23 18 11 14 15
36 34 35 32 34 34 35 34 30 29 30 31 35 36 34 39 38 39 25 25 19 24 22 25 21 17 21 27 18 15 13 21 13 12 11 10 19 17 20 20 11 18 10 12 12
36 37 40 37 32 34 35 35 35 32 31 32 36 37 35 40 41 38 36 30 23 32 36 26 27 24 19 20 12 10 8 11 14 23 19 17 15 21 16 16 8 15 17 15 14
38 37 39 39 39 35 32 32 34 32 33 34 37 37 38 41 42 42 37 36 26 24 31 29 27 33 23 33 21 23 16 15 17 14 28 11 13 21 16 20 27 27 23 20 20
38 37 37 39 41 42 38 38 41 40 37 40 40 42 42 40 41 38 47 49 46 32 24 31 28 29 28 19 18 17 16 18 20 15 18 16 18 28 30 29 31 27 23 25 24

GFSSW_500_spd_171.txt.gz
Wind_Speed
9 10 10 13 13 14 14 15 14 12 11 10 8 7 6 5 3 2 1 0 1 1 1 2 1 2 4 6 4 15 15 11 11 16 16 19 8 8 7 10 9 5 6 4 2
10 9 9 10 10 11 13 12 11 10 10 9 9 9 9 8 6 5 4 2 3 3 1 2 2 6 5 3 8 12 16 15 12 13 7 11 11 9 9 10 8 4 5 4 2
9 9 8 7 8 9 9 9 8 8 8 7 8 9 9 10 6 7 5 2 4 4 4 4 4 11 5 4 11 8 9 13 15 10 3 5 8 12 15 11 4 3 5 4 4
6 8 8 8 7 7 7 7 6 6 6 6 7 9 10 10 9 9 6 5 4 4 6 6 5 9 6 7 4 4 10 14 14 12 3 8 11 15 12 8 3 3 6 6 4
3 4 6 6 6 6 7 6 4 4 5 5 7 9 11 11 11 10 8 6 6 5 7 8 5 7 3 1 9 6 7 13 14 13 10 6 15 19 16 10 4 2 5 3 7
2 2 3 4 4 4 5 4 2 1 2 4 6 8 10 12 12 10 9 8 7 6 8 7 10 11 6 9 10 0 2 6 10 9 10 3 7 18 12 10 8 6 4 4 3
1 1 3 3 4 4 4 3 3 3 3 4 6 8 11 12 13 11 10 9 8 8 7 9 12 3 6 4 5 4 3 5 6 8 9 6 7 23 11 10 4 7 2 6 3
3 3 3 4 5 6 5 5 5 5 5 5 5 7 10 13 14 12 10 9 10 9 6 8 10 12 8 10 7 6 1 7 4 4 7 9 11 1 11 11 5 6 2 3 3
8 8 7 7 7 7 8 8 8 8 7 6 5 6 9 12 13 13 11 9 10 10 7 9 9 11 14 9 9 4 5 7 2 7 10 9 8 13 7 11 5 7 4 7 3
10 10 10 9 9 9 10 10 10 10 9 7 6 7 8 10 12 13 12 9 10 9 7 8 11 13 15 10 11 8 5 10 7 6 7 4 7 5 6 4 13 10 8 8 5
10 11 12 11 11 11 12 12 12 11 11 10 9 8 9 10 12 13 13 10 9 8 8 8 12 13 11 8 6 5 7 14 8 3 7 11 10 7 2 4 4 9 13 12 9
12 11 11 10 10 11 12 12 14 13 13 12 11 11 12 11 11 11 13 11 9 10 11 8 11 12 11 5 5 1 8 10 9 11 11 10 13 8 4 5 5 5 7 12 12
16 16 16 15 14 14 14 14 14 14 14 15 14 13 15 11 10 10 11 10 9 11 12 11 14 5 7 8 9 5 10 9 21 16 19 14 12 8 9 12 6 3 9 11 10
22 21 21 20 20 19 18 19 18 18 19 19 16 16 16 13 12 10 11 11 9 10 12 12 14 9 16 20 11 7 10 13 13 21 13 13 11 13 18 9 15 11 8 11 8
31 30 28 28 27 25 23 23 23 22 23 25 20 17 15 14 13 10 10 11 10 10 12 11 11 17 15 17 16 13 15 13 12 20 16 10 15 9 18 10 17 19 13 9 9
24 26 30 33 34 33 30 30 29 28 25 26 23 17 15 16 14 12 10 10 11 10 10 11 9 9 15 11 16 10 11 9 9 16 9 7 16 10 16 19 18 8 7 9 9
26 27 27 25 28 31 33 33 31 28 21 20 20 21 17 15 16 12 10 9 10 8 1 2 5 2 8 10 11 19 14 10 7 10 14 11 10 13 11 16 14 14 18 13 9
23 21 24 26 24 25 25 26 24 15 17 3 14 22 24 17 18 14 8 7 9 11 12 7 11 16 15 8 6 1 10 8 12 15 6 10 15 11 15 14 9 7 4 9 11
26 22 24 23 25 28 28 23 13 11 20 30 22 16 22 26 18 15 9 5 9 10 11 10 9 20 21 11 12 8 8 7 5 10 18 6 7 13 18 16 16 16 8 8 10
28 27 25 25 29 28 30 24 20 17 27 37 31 28 22 23 13 15 15 7 2 12 18 15 6 8 14 11 14 12 17 12 7 11 15 18 8 12 21 23 21 22 16 16 14
29 30 25 28 28 29 27 24 24 24 27 37 34 37 29 25 20 21 17 17 14 12 24 19 12 15 12 13 3 17 13 13 9 7 17 20 7 21 12 17 23 22 16 11 3
32 32 29 27 30 29 26 29 29 26 31 32 34 41 37 33 34 33 31 28 13 22 25 24 18 10 9 17 17 8 12 3 10 5 17 18 16 10 5 14 21 22 15 6 5
32 34 37 32 29 31 30 31 30 28 29 35 31 35 40 41 38 38 34 28 19 26 20 27 26 21 21 16 18 11 16 14 15 19 17 17 11 13 13 20 22 15 10 9 10
36 36 39 36 32 34 33 33 30 30 29 32 33 36 36 43 40 41 41 30 29 27 26 23 32 31 26 13 25 23 21 23 20 19 18 22 25 18 15 20 17 1 6 9 9
35 36 37 37 37 35 33 33 33 35 33 34 36 34 32 34 44 41 42 34 30 25 20 27 25 30 23 25 21 30 25 10 15 20 26 22 17 25 10 14 16 4 5 11 13
35 33 36 36 40 40 36 33 35 35 38 36 36 34 33 37 37 45 43 36 36 28 35 32 32 24 30 29 18 20 20 13 21 25 29 31 27 21 12 11 20 13 17 16 11
33 32 34 32 35 39 39 36 38 37 38 36 38 37 40 39 44 46 53 49 49 40 32 34 31 24 36 30 22 20 17 19 13 21 21 29 32 31 23 25 20 14 16 14 14

GFSSW_500_spd_174.txt.gz
Wind_Speed
9 9 12 13 13 14 15 14 12 11 9 9 9 9 7 5 3 1 1 2 2 1 1 1 3 4 2 1 5 6 13 19 8 3 20 16 14 11 2 5 3 3 2 3 5
8 10 10 11 12 13 13 12 10 9 9 9 10 10 10 7 6 4 1 2 4 3 6 8 8 6 4 4 6 2 9 12 11 10 7 12 14 17 10 2 3 4 3 5 5
8 7 7 8 10 11 10 9 8 7 8 8 8 8 8 7 5 6 4 2 4 6 8 9 10 10 5 8 7 8 8 8 7 7 2 0 7 10 10 6 6 2 4 5 3
8 7 7 7 8 7 7 7 6 6 6 7 7 7 7 8 6 6 5 3 4 7 8 9 10 7 8 8 1 5 4 5 7 8 4 3 5 3 10 2 3 2 5 6 5
5 6 6 6 5 6 6 5 4 4 4 4 5 6 7 8 9 8 6 4 4 7 10 12 13 10 9 2 8 7 9 9 12 7 6 4 12 11 14 10 12 2 7 5 3
4 4 5 5 6 6 6 5 3 1 1 2 3 5 7 8 10 10 8 6 4 6 11 12 13 12 7 2 3 2 5 6 10 8 9 6 7 9 8 14 14 9 6 3 8
1 2 4 5 6 6 7 6 6 4 3 3 3 3 6 9 10 11 10 9 6 6 10 9 11 10 6 4 2 3 2 7 6 5 7 8 11 14 11 8 10 6 8 2 8
3 3 4 5 7 8 8 8 8 8 6 5 4 4 6 8 11 11 11 10 8 6 8 10 9 11 9 4 7 5 4 7 5 5 7 6 7 4 12 7 5 4 3 2 7
9 8 8 8 8 9 10 10 9 9 9 8 7 6 7 10 10 11 13 10 8 6 8 12 12 12 14 7 5 2 2 4 1 8 9 15 12 12 9 16 11 7 6 2 2
11 11 11 10 11 11 11 11 11 11 11 10 9 7 6 9 12 12 11 10 8 7 7 11 13 11 11 8 6 2 3 5 1 3 7 12 14 13 11 6 8 7 6 3 2
10 11 11 12 12 13 12 13 14 13 13 12 12 9 8 8 11 12 11 10 9 8 8 11 12 9 10 11 6 5 4 6 6 10 10 8 8 7 6 5 8 10 11 6 4
13 14 13 12 12 13 14 14 15 12 13 12 13 12 10 11 13 13 12 11 8 9 9 9 10 10 9 9 8 8 6 9 6 15 13 14 9 8 3 9 9 10 5 7 6
18 18 18 17 17 17 16 14 15 12 11 13 14 15 14 13 15 14 12 12 9 8 8 11 14 16 15 13 11 2 5 5 10 6 8 5 7 9 9 8 8 9 6 9 4
25 25 24 23 23 21 20 20 20 18 16 18 15 16 17 16 16 14 13 13 10 8 9 13 16 18 14 9 7 7 5 10 14 14 7 2 1 5 10 4 10 10 6 5 7
25 28 29 32 30 28 25 27 25 22 24 22 20 19 19 18 15 15 14 13 11 9 10 17 21 21 13 5 15 6 6 11 16 13 13 9 7 1 4 9 8 6 7 5 5
24 23 24 26 29 32 33 34 32 30 30 25 24 21 20 19 17 14 14 13 12 9 9 12 14 14 10 12 13 17 8 11 16 17 15 11 8 4 4 7 7 4 4 3 5
21 20 24 25 27 27 25 28 29 29 27 22 22 18 20 14 15 13 12 15 10 8 7 8 13 13 13 10 12 24 15 15 7 5 10 13 9 5 3 6 7 9 10 12 6
21 17 20 23 21 27 26 22 16 13 22 25 26 26 21 12 8 13 12 14 9 7 12 14 11 11 7 7 6 18 10 14 3 7 16 6 12 9 3 9 12 12 4 4 7
21 21 25 23 22 24 24 22 13 12 25 26 26 24 19 12 9 9 10 14 9 9 14 14 12 7 8 2 8 9 10 9 4 2 12 16 13 13 3 9 9 15 12 2 6
26 25 24 25 28 26 25 19 17 19 24 32 27 25 25 28 19 8 8 8 5 2 10 16 14 10 3 4 10 10 10 12 8 10 12 16 12 10 5 8 11 12 9 13 10
27 28 27 30 28 28 25 22 24 28 32 37 39 34 29 27 27 21 19 11 3 3 9 15 13 12 8 7 6 10 18 15 10 8 14 12 8 8 12 8 9 12 14 9 4
31 34 30 29 30 32 29 28 30 32 37 38 42 42 36 33 33 31 27 22 16 15 15 10 21 18 5 9 6 10 8 13 14 7 15 21 20 17 3 3 6 11 8 7 4
35 38 37 33 30 34 33 32 30 32 35 37 40 43 47 44 40 37 34 29 26 28 19 15 25 21 16 16 21 18 16 17 13 14 18 18 22 15 10 12 9 7 1 3 5
32 35 35 33 34 34 31 29 30 32 36 40 40 43 49 43 49 46 40 36 33 33 26 25 21 27 24 19 23 25 17 21 17 21 20 19 25 21 12 9 3 2 3 1 3
32 32 35 37 34 35 34 33 34 32 35 42 41 45 48 50 48 46 51 42 41 41 34 31 27 27 31 30 28 24 25 27 25 25 25 23 27 25 15 12 5 11 1 8 15
32 33 34 33 37 39 35 38 39 36 35 41 44 47 48 45 46 51 44 48 46 45 40 38 28 26 33 31 37 38 32 35 21 21 29 27 28 29 22 13 16 12 7 11 12
33 32 32 32 32 34 37 37 36 37 38 38 42 46 48 47 45 48 52 47 48 49 51 40 35 34 33 28 30 38 23 27 34 25 24 29 31 33 35 30 24 10 9 14 11